Location: *
(38.9555°S, 57.3572°E)
Time: 01:18:32
(UTC+00:00)

ASTEX 1 - Pass Details

Date: 15 July 2020
Orbit: 719 x 745 km, 92.7° (Epoch: 06 August)

Event Time Altitude Azimuth Distance (km) Brightness Sun altitude
Rises 13:28:32 0° 162° (SSE) 3,203 6.3 -4.5°
Reaches altitude 10° 13:31:11 10° 150° (SSE) 2,276 5.5 -5.0°
Maximum altitude 13:35:27 27° 92° (E) 1,411 4.4 -5.7°
Drops below altitude 10° 13:39:41 10° 34° (NE) 2,260 5.8 -6.5°
Sets 13:42:17 0° 22° (NNE) 3,177 6.7 -7.0°
